Back to catalog

ARIANE 44L DEB

LostHEO
NORAD 28039·DEBRIS·🇫🇷 France

Launched Jan 15, 1991 from Guiana Space Centre

Loading…

Next Passes (next 24 hours)

TLE

StaleSource: Space-Track

Epoch: Aug 29, 2025, 22:24 UTC

1 28039U 91003M   25241.93357237 -.00000156  00000-0  00000-0 0  9991
2 28039   7.0327 219.9019 6644950 123.8827 287.8912  2.58207847265181

Track ARIANE 44L DEB in real time with AllMySat

Download on the App Store